Location: Sabalos
(43.2860°N, 0.1414°E)
Time: 21:08:16
(UTC+00:00)

SAR-Lupe-2 - Pass Details

Date: 05 July 2020
Orbit: 482 x 484 km, 98.1° (Epoch: 09 August)

Event Time Altitude Azimuth Distance (km) Brightness Sun altitude
Rises 21:39:24 0° 7° (N) 2,558 8.0 -16.1°
Reaches altitude 10° 21:41:30 10° 2° (N) 1,672 7.1 -16.3°
Maximum altitude 21:44:59 49° 288° (WNW) 629 4.4 -16.7°
Enters shadow 21:47:59 13° 214° (SW) 1,472 5.8 -17.0°
